Location: Donzy-le-Pr�
(47.3659°N, 3.1107°E)
Time: 05:49:57
(UTC+00:00)

FALCON 9 DEB - Pass Details

Date: 03 March 2021
Orbit: 369 x 389 km, 53.0° (Epoch: 22 April)

Event Time Altitude Azimuth Distance (km) Brightness Sun altitude
Rises 18:20:54 0° 281° (W) 2,305 8.8 -8.4°
Reaches altitude 10° 18:23:09 10° 293° (WNW) 1,449 7.0 -8.8°
Maximum altitude 18:26:02 29° 356° (N) 768 4.4 -9.3°
Enters shadow 18:28:49 11° 58° (ENE) 1,407 5.2 -9.8°
